owner,sensor,date,latitude,longitude,vertical_datum,wind_speed,wind_to_direction,wind_speed_of_gust,qcFlag 
DISL,ioos:station:DISL:MHPA:1,2015-02-01T00:00:00Z,30.6671,-87.9365,8.5,1.57,107.0,-9999.0,'1111122,1111122,1111122' 
DISL,ioos:station:DISL:MHPA:1,2015-02-01T00:30:00Z,30.6671,-87.9365,8.5,1.3,95.5,-9999.0,'1111122,1111122,1111122' 
DISL,ioos:station:DISL:MHPA:1,2015-02-01T01:00:00Z,30.6671,-87.9365,8.5,0.85,92.0,-9999.0,'1111122,1111122,1111122' 
DISL,ioos:station:DISL:MHPA:1,2015-02-01T01:30:00Z,30.6671,-87.9365,8.5,0.48,84.2,-9999.0,'1111122,1111122,1111122' 
DISL,ioos:station:DISL:MHPA:1,2015-02-01T02:00:00Z,30.6671,-87.9365,8.5,1.25,136.9,-9999.0,'1111122,1111122,1111122' 
DISL,ioos:station:DISL:MHPA:1,2015-02-01T02:30:00Z,30.6671,-87.9365,8.5,0.83,72.37,-9999.0,'1111122,1111122,1111122' 
DISL,ioos:station:DISL:MHPA:1,2015-02-01T03:00:00Z,30.6671,-87.9365,8.5,1.05,108.4,-9999.0,'1111122,1111122,1111122' 
DISL,ioos:station:DISL:MHPA:1,2015-02-01T03:30:00Z,30.6671,-87.9365,8.5,0.97,76.66,-9999.0,'1111122,1111122,1111122' 
DISL,ioos:station:DISL:MHPA:1,2015-02-01T04:00:00Z,30.6671,-87.9365,8.5,1.0,82.7,-9999.0,'1111122,1111122,1111122' 
DISL,ioos:station:DISL:MHPA:1,2015-02-01T04:30:00Z,30.6671,-87.9365,8.5,0.84,72.27,-9999.0,'1111122,1111122,1111122' 
DISL,ioos:station:DISL:MHPA:1,2015-02-01T05:00:00Z,30.6671,-87.9365,8.5,0.81,106.6,-9999.0,'1111122,1111122,1111122' 
DISL,ioos:station:DISL:MHPA:1,2015-02-01T05:30:00Z,30.6671,-87.9365,8.5,0.81,79.63,-9999.0,'1111122,1111122,1111122' 
DISL,ioos:station:DISL:MHPA:1,2015-02-01T06:00:00Z,30.6671,-87.9365,8.5,0.69,114.2,-9999.0,'1111122,1111122,1111122' 
DISL,ioos:station:DISL:MHPA:1,2015-02-01T06:30:00Z,30.6671,-87.9365,8.5,1.25,103.9,-9999.0,'1111122,1111122,1111122' 
DISL,ioos:station:DISL:MHPA:1,2015-02-01T07:00:00Z,30.6671,-87.9365,8.5,1.56,111.0,-9999.0,'1111122,1111122,1111122' 
DISL,ioos:station:DISL:MHPA:1,2015-02-01T07:30:00Z,30.6671,-87.9365,8.5,2.6,86.0,-9999.0,'1111122,1111122,1111122' 
DISL,ioos:station:DISL:MHPA:1,2015-02-01T08:00:00Z,30.6671,-87.9365,8.5,3.11,89.4,-9999.0,'1111122,1111122,1111122' 
DISL,ioos:station:DISL:MHPA:1,2015-02-01T08:30:00Z,30.6671,-87.9365,8.5,3.26,95.0,-9999.0,'1111122,1111122,1111122' 
DISL,ioos:station:DISL:MHPA:1,2015-02-01T09:00:00Z,30.6671,-87.9365,8.5,2.89,99.7,-9999.0,'1111122,1111122,1111122' 
DISL,ioos:station:DISL:MHPA:1,2015-02-01T09:30:00Z,30.6671,-87.9365,8.5,3.28,95.1,-9999.0,'1111122,1111122,1111122' 
DISL,ioos:station:DISL:MHPA:1,2015-02-01T10:00:00Z,30.6671,-87.9365,8.5,3.25,93.9,-9999.0,'1111122,1111122,1111122' 
DISL,ioos:station:DISL:MHPA:1,2015-02-01T10:30:00Z,30.6671,-87.9365,8.5,4.06,92.5,-9999.0,'1111122,1111122,1111122' 
DISL,ioos:station:DISL:MHPA:1,2015-02-01T11:00:00Z,30.6671,-87.9365,8.5,2.71,93.5,-9999.0,'1111122,1111122,1111122' 
DISL,ioos:station:DISL:MHPA:1,2015-02-01T11:30:00Z,30.6671,-87.9365,8.5,2.5,101.5,-9999.0,'1111122,1111122,1111122' 
DISL,ioos:station:DISL:MHPA:1,2015-02-01T12:00:00Z,30.6671,-87.9365,8.5,1.23,78.89,-9999.0,'1111122,1111122,1111122' 
DISL,ioos:station:DISL:MHPA:1,2015-02-01T12:30:00Z,30.6671,-87.9365,8.5,3.0,99.0,-9999.0,'1111122,1111122,1111122' 
DISL,ioos:station:DISL:MHPA:1,2015-02-01T13:00:00Z,30.6671,-87.9365,8.5,2.65,91.7,-9999.0,'1111122,1111122,1111122' 
DISL,ioos:station:DISL:MHPA:1,2015-02-01T13:30:00Z,30.6671,-87.9365,8.5,2.7,108.8,-9999.0,'1111122,1111122,1111122' 
DISL,ioos:station:DISL:MHPA:1,2015-02-01T14:00:00Z,30.6671,-87.9365,8.5,3.48,107.2,-9999.0,'1111122,1111122,1111122' 
DISL,ioos:station:DISL:MHPA:1,2015-02-01T14:30:00Z,30.6671,-87.9365,8.5,3.68,107.7,-9999.0,'1111122,1111122,1111122' 
DISL,ioos:station:DISL:MHPA:1,2015-02-01T15:00:00Z,30.6671,-87.9365,8.5,3.74,120.4,-9999.0,'1111122,1111122,1111122' 
DISL,ioos:station:DISL:MHPA:1,2015-02-01T15:30:00Z,30.6671,-87.9365,8.5,3.28,117.7,-9999.0,'1111122,1111122,1111122' 
DISL,ioos:station:DISL:MHPA:1,2015-02-01T16:00:00Z,30.6671,-87.9365,8.5,2.5,121.6,-9999.0,'1111122,1111122,1111122' 
DISL,ioos:station:DISL:MHPA:1,2015-02-01T16:30:00Z,30.6671,-87.9365,8.5,3.72,140.3,-9999.0,'1111122,1111122,1111122' 
DISL,ioos:station:DISL:MHPA:1,2015-02-01T17:00:00Z,30.6671,-87.9365,8.5,6.03,147.6,-9999.0,'1111122,1111122,1111122' 
DISL,ioos:station:DISL:MHPA:1,2015-02-01T17:30:00Z,30.6671,-87.9365,8.5,6.26,153.8,-9999.0,'1111122,1111122,1111122' 
DISL,ioos:station:DISL:MHPA:1,2015-02-01T18:00:00Z,30.6671,-87.9365,8.5,5.8,149.2,-9999.0,'1111122,1111122,1111122' 
DISL,ioos:station:DISL:MHPA:1,2015-02-01T18:30:00Z,30.6671,-87.9365,8.5,6.53,152.6,-9999.0,'1111122,1111122,1111122' 
DISL,ioos:station:DISL:MHPA:1,2015-02-01T19:00:00Z,30.6671,-87.9365,8.5,6.76,159.9,-9999.0,'1111122,1111122,1111122' 
DISL,ioos:station:DISL:MHPA:1,2015-02-01T19:30:00Z,30.6671,-87.9365,8.5,4.15,200.6,-9999.0,'1111122,1111122,1111122' 
DISL,ioos:station:DISL:MHPA:1,2015-02-01T20:00:00Z,30.6671,-87.9365,8.5,3.12,181.7,-9999.0,'1111122,1111122,1111122' 
DISL,ioos:station:DISL:MHPA:1,2015-02-01T20:30:00Z,30.6671,-87.9365,8.5,4.78,167.7,-9999.0,'1111122,1111122,1111122' 
DISL,ioos:station:DISL:MHPA:1,2015-02-01T21:00:00Z,30.6671,-87.9365,8.5,5.68,154.2,-9999.0,'1111122,1111122,1111122' 
DISL,ioos:station:DISL:MHPA:1,2015-02-01T21:30:00Z,30.6671,-87.9365,8.5,5.59,155.5,-9999.0,'1111122,1111122,1111122' 
DISL,ioos:station:DISL:MHPA:1,2015-02-01T22:00:00Z,30.6671,-87.9365,8.5,5.19,160.8,-9999.0,'1111122,1111122,1111122' 
DISL,ioos:station:DISL:MHPA:1,2015-02-01T22:30:00Z,30.6671,-87.9365,8.5,4.65,155.1,-9999.0,'1111122,1111122,1111122' 
DISL,ioos:station:DISL:MHPA:1,2015-02-01T23:00:00Z,30.6671,-87.9365,8.5,5.67,159.4,-9999.0,'1111122,1111122,1111122' 
DISL,ioos:station:DISL:MHPA:1,2015-02-01T23:30:00Z,30.6671,-87.9365,8.5,5.32,153.5,-9999.0,'1111122,1111122,1111122' 
DISL,ioos:station:DISL:MHPA:1,2015-02-02T00:00:00Z,30.6671,-87.9365,8.5,4.89,164.7,-9999.0,'1111122,1111122,1111122' 
DISL,ioos:station:DISL:MHPA:1,2015-02-02T00:30:00Z,30.6671,-87.9365,8.5,4.91,156.8,-9999.0,'1111122,1111122,1111122' 
DISL,ioos:station:DISL:MHPA:1,2015-02-02T01:00:00Z,30.6671,-87.9365,8.5,4.98,156.8,-9999.0,'1111122,1111122,1111122' 
DISL,ioos:station:DISL:MHPA:1,2015-02-02T01:30:00Z,30.6671,-87.9365,8.5,5.68,154.1,-9999.0,'1111122,1111122,1111122' 
DISL,ioos:station:DISL:MHPA:1,2015-02-02T02:00:00Z,30.6671,-87.9365,8.5,4.84,158.1,-9999.0,'1111122,1111122,1111122' 
DISL,ioos:station:DISL:MHPA:1,2015-02-02T02:30:00Z,30.6671,-87.9365,8.5,4.73,158.4,-9999.0,'1111122,1111122,1111122' 
DISL,ioos:station:DISL:MHPA:1,2015-02-02T03:00:00Z,30.6671,-87.9365,8.5,5.09,163.4,-9999.0,'1111122,1111122,1111122' 
DISL,ioos:station:DISL:MHPA:1,2015-02-02T03:30:00Z,30.6671,-87.9365,8.5,4.97,155.2,-9999.0,'1111122,1111122,1111122' 
DISL,ioos:station:DISL:MHPA:1,2015-02-02T04:00:00Z,30.6671,-87.9365,8.5,5.27,161.6,-9999.0,'1111122,1111122,1111122' 
DISL,ioos:station:DISL:MHPA:1,2015-02-02T04:30:00Z,30.6671,-87.9365,8.5,4.87,161.7,-9999.0,'1111122,1111122,1111122' 
DISL,ioos:station:DISL:MHPA:1,2015-02-02T05:00:00Z,30.6671,-87.9365,8.5,5.27,160.4,-9999.0,'1111122,1111122,1111122' 
DISL,ioos:station:DISL:MHPA:1,2015-02-02T05:30:00Z,30.6671,-87.9365,8.5,4.57,175.5,-9999.0,'1111122,1111122,1111122' 
DISL,ioos:station:DISL:MHPA:1,2015-02-02T06:00:00Z,30.6671,-87.9365,8.5,5.21,293.4,-9999.0,'1111122,1111122,1111122' 
DISL,ioos:station:DISL:MHPA:1,2015-02-02T06:30:00Z,30.6671,-87.9365,8.5,3.78,315.1,-9999.0,'1111122,1111122,1111122' 
DISL,ioos:station:DISL:MHPA:1,2015-02-02T07:00:00Z,30.6671,-87.9365,8.5,4.96,306.9,-9999.0,'1111122,1111122,1111122' 
DISL,ioos:station:DISL:MHPA:1,2015-02-02T07:30:00Z,30.6671,-87.9365,8.5,2.61,329.3,-9999.0,'1111122,1111122,1111122' 
DISL,ioos:station:DISL:MHPA:1,2015-02-02T08:00:00Z,30.6671,-87.9365,8.5,5.38,310.3,-9999.0,'1111122,1111122,1111122' 
DISL,ioos:station:DISL:MHPA:1,2015-02-02T08:30:00Z,30.6671,-87.9365,8.5,5.86,304.4,-9999.0,'1111122,1111122,1111122' 
DISL,ioos:station:DISL:MHPA:1,2015-02-02T09:00:00Z,30.6671,-87.9365,8.5,4.8,310.4,-9999.0,'1111122,1111122,1111122' 
DISL,ioos:station:DISL:MHPA:1,2015-02-02T09:30:00Z,30.6671,-87.9365,8.5,7.34,305.3,-9999.0,'1111122,1111122,1111122' 
DISL,ioos:station:DISL:MHPA:1,2015-02-02T10:00:00Z,30.6671,-87.9365,8.5,7.26,308.7,-9999.0,'1111122,1111122,1111122' 
DISL,ioos:station:DISL:MHPA:1,2015-02-02T10:30:00Z,30.6671,-87.9365,8.5,5.11,319.1,-9999.0,'1111122,1111122,1111122' 
DISL,ioos:station:DISL:MHPA:1,2015-02-02T11:00:00Z,30.6671,-87.9365,8.5,5.81,317.1,-9999.0,'1111122,1111122,1111122' 
DISL,ioos:station:DISL:MHPA:1,2015-02-02T11:30:00Z,30.6671,-87.9365,8.5,5.74,316.1,-9999.0,'1111122,1111122,1111122' 
DISL,ioos:station:DISL:MHPA:1,2015-02-02T12:00:00Z,30.6671,-87.9365,8.5,7.38,317.6,-9999.0,'1111122,1111122,1111122' 
DISL,ioos:station:DISL:MHPA:1,2015-02-02T12:30:00Z,30.6671,-87.9365,8.5,7.21,316.3,-9999.0,'1111122,1111122,1111122' 
DISL,ioos:station:DISL:MHPA:1,2015-02-02T13:00:00Z,30.6671,-87.9365,8.5,8.32,314.3,-9999.0,'1111122,1111122,1111122' 
DISL,ioos:station:DISL:MHPA:1,2015-02-02T13:30:00Z,30.6671,-87.9365,8.5,7.41,318.7,-9999.0,'1111122,1111122,1111122' 
DISL,ioos:station:DISL:MHPA:1,2015-02-02T14:00:00Z,30.6671,-87.9365,8.5,6.28,329.9,-9999.0,'1111122,1111122,1111122' 
DISL,ioos:station:DISL:MHPA:1,2015-02-02T14:30:00Z,30.6671,-87.9365,8.5,7.75,316.1,-9999.0,'1111122,1111122,1111122' 
DISL,ioos:station:DISL:MHPA:1,2015-02-02T15:00:00Z,30.6671,-87.9365,8.5,9.14,322.7,-9999.0,'1111122,1111122,1111122' 
DISL,ioos:station:DISL:MHPA:1,2015-02-02T15:30:00Z,30.6671,-87.9365,8.5,7.41,338.0,-9999.0,'1111122,1111122,1111122' 
DISL,ioos:station:DISL:MHPA:1,2015-02-02T16:00:00Z,30.6671,-87.9365,8.5,6.95,334.2,-9999.0,'1111122,1111122,1111122' 
DISL,ioos:station:DISL:MHPA:1,2015-02-02T16:30:00Z,30.6671,-87.9365,8.5,6.31,354.7,-9999.0,'1111122,1111122,1111122' 
DISL,ioos:station:DISL:MHPA:1,2015-02-02T17:00:00Z,30.6671,-87.9365,8.5,5.49,336.1,-9999.0,'1111122,1111122,1111122' 
DISL,ioos:station:DISL:MHPA:1,2015-02-02T17:30:00Z,30.6671,-87.9365,8.5,5.93,346.1,-9999.0,'1111122,1111122,1111122' 
DISL,ioos:station:DISL:MHPA:1,2015-02-02T18:00:00Z,30.6671,-87.9365,8.5,6.31,343.2,-9999.0,'1111122,1111122,1111122' 
DISL,ioos:station:DISL:MHPA:1,2015-02-02T18:30:00Z,30.6671,-87.9365,8.5,6.39,341.0,-9999.0,'1111122,1111122,1111122' 
DISL,ioos:station:DISL:MHPA:1,2015-02-02T19:00:00Z,30.6671,-87.9365,8.5,4.99,336.5,-9999.0,'1111122,1111122,1111122' 
DISL,ioos:station:DISL:MHPA:1,2015-02-02T19:30:00Z,30.6671,-87.9365,8.5,5.19,357.0,-9999.0,'1111122,1111122,1111122' 
DISL,ioos:station:DISL:MHPA:1,2015-02-02T20:00:00Z,30.6671,-87.9365,8.5,5.81,355.1,-9999.0,'1111122,1111122,1111122' 
DISL,ioos:station:DISL:MHPA:1,2015-02-02T20:30:00Z,30.6671,-87.9365,8.5,5.17,354.6,-9999.0,'1111122,1111122,1111122' 
DISL,ioos:station:DISL:MHPA:1,2015-02-02T21:00:00Z,30.6671,-87.9365,8.5,5.75,357.5,-9999.0,'1111122,1111122,1111122' 
DISL,ioos:station:DISL:MHPA:1,2015-02-02T21:30:00Z,30.6671,-87.9365,8.5,4.56,3.26,-9999.0,'1111122,1111122,1111122' 
DISL,ioos:station:DISL:MHPA:1,2015-02-02T22:00:00Z,30.6671,-87.9365,8.5,5.64,349.0,-9999.0,'1111122,1111122,1111122' 
DISL,ioos:station:DISL:MHPA:1,2015-02-02T22:30:00Z,30.6671,-87.9365,8.5,4.19,351.7,-9999.0,'1111122,1111122,1111122' 
DISL,ioos:station:DISL:MHPA:1,2015-02-02T23:00:00Z,30.6671,-87.9365,8.5,4.23,355.9,-9999.0,'1111122,1111122,1111122' 
DISL,ioos:station:DISL:MHPA:1,2015-02-02T23:30:00Z,30.6671,-87.9365,8.5,3.01,357.1,-9999.0,'1111122,1111122,1111122' 
DISL,ioos:station:DISL:MHPA:1,2015-02-03T00:00:00Z,30.6671,-87.9365,8.5,2.22,356.4,-9999.0,'1111122,1111122,1111122' 
DISL,ioos:station:DISL:MHPA:1,2015-02-03T00:30:00Z,30.6671,-87.9365,8.5,2.81,11.64,-9999.0,'1111122,1111122,1111122' 
DISL,ioos:station:DISL:MHPA:1,2015-02-03T01:00:00Z,30.6671,-87.9365,8.5,2.86,11.38,-9999.0,'1111122,1111122,1111122' 
DISL,ioos:station:DISL:MHPA:1,2015-02-03T01:30:00Z,30.6671,-87.9365,8.5,2.23,20.84,-9999.0,'1111122,1111122,1111122' 
DISL,ioos:station:DISL:MHPA:1,2015-02-03T02:00:00Z,30.6671,-87.9365,8.5,2.37,5.003,-9999.0,'1111122,1111122,1111122' 
DISL,ioos:station:DISL:MHPA:1,2015-02-03T02:30:00Z,30.6671,-87.9365,8.5,2.1,356.2,-9999.0,'1111122,1111122,1111122' 
DISL,ioos:station:DISL:MHPA:1,2015-02-03T03:00:00Z,30.6671,-87.9365,8.5,2.1,4.303,-9999.0,'1111122,1111122,1111122' 
DISL,ioos:station:DISL:MHPA:1,2015-02-03T03:30:00Z,30.6671,-87.9365,8.5,2.29,0.719,-9999.0,'1111122,1111122,1111122' 
DISL,ioos:station:DISL:MHPA:1,2015-02-03T04:00:00Z,30.6671,-87.9365,8.5,2.92,17.3,-9999.0,'1111122,1111122,1111122' 
DISL,ioos:station:DISL:MHPA:1,2015-02-03T04:30:00Z,30.6671,-87.9365,8.5,2.27,10.6,-9999.0,'1111122,1111122,1111122' 
DISL,ioos:station:DISL:MHPA:1,2015-02-03T05:00:00Z,30.6671,-87.9365,8.5,1.74,356.1,-9999.0,'1111122,1111122,1111122' 
DISL,ioos:station:DISL:MHPA:1,2015-02-03T05:30:00Z,30.6671,-87.9365,8.5,2.09,13.37,-9999.0,'1111122,1111122,1111122' 
DISL,ioos:station:DISL:MHPA:1,2015-02-03T06:00:00Z,30.6671,-87.9365,8.5,1.52,1.17,-9999.0,'1111122,1111122,1111122' 
DISL,ioos:station:DISL:MHPA:1,2015-02-03T06:30:00Z,30.6671,-87.9365,8.5,2.18,4.708,-9999.0,'1111122,1111122,1111122' 
DISL,ioos:station:DISL:MHPA:1,2015-02-03T07:00:00Z,30.6671,-87.9365,8.5,1.89,2.144,-9999.0,'1111122,1111122,1111122' 
DISL,ioos:station:DISL:MHPA:1,2015-02-03T07:30:00Z,30.6671,-87.9365,8.5,1.54,10.64,-9999.0,'1111122,1111122,1111122' 
DISL,ioos:station:DISL:MHPA:1,2015-02-03T08:00:00Z,30.6671,-87.9365,8.5,1.81,356.6,-9999.0,'1111122,1111122,1111122' 
DISL,ioos:station:DISL:MHPA:1,2015-02-03T08:30:00Z,30.6671,-87.9365,8.5,3.05,8.0,-9999.0,'1111122,1111122,1111122' 
DISL,ioos:station:DISL:MHPA:1,2015-02-03T09:00:00Z,30.6671,-87.9365,8.5,3.96,344.3,-9999.0,'1111122,1111122,1111122' 
DISL,ioos:station:DISL:MHPA:1,2015-02-03T09:30:00Z,30.6671,-87.9365,8.5,3.4,1.987,-9999.0,'1111122,1111122,1111122' 
DISL,ioos:station:DISL:MHPA:1,2015-02-03T10:00:00Z,30.6671,-87.9365,8.5,3.1,16.17,-9999.0,'1111122,1111122,1111122' 
DISL,ioos:station:DISL:MHPA:1,2015-02-03T10:30:00Z,30.6671,-87.9365,8.5,2.43,17.44,-9999.0,'1111122,1111122,1111122' 
DISL,ioos:station:DISL:MHPA:1,2015-02-03T11:00:00Z,30.6671,-87.9365,8.5,1.58,8.13,-9999.0,'1111122,1111122,1111122' 
DISL,ioos:station:DISL:MHPA:1,2015-02-03T11:30:00Z,30.6671,-87.9365,8.5,1.41,23.82,-9999.0,'1111122,1111122,1111122' 
DISL,ioos:station:DISL:MHPA:1,2015-02-03T12:00:00Z,30.6671,-87.9365,8.5,1.54,9.38,-9999.0,'1111122,1111122,1111122' 
DISL,ioos:station:DISL:MHPA:1,2015-02-03T12:30:00Z,30.6671,-87.9365,8.5,1.8,11.4,-9999.0,'1111122,1111122,1111122' 
DISL,ioos:station:DISL:MHPA:1,2015-02-03T13:00:00Z,30.6671,-87.9365,8.5,1.7,356.4,-9999.0,'1111122,1111122,1111122' 
DISL,ioos:station:DISL:MHPA:1,2015-02-03T13:30:00Z,30.6671,-87.9365,8.5,1.9,17.28,-9999.0,'1111122,1111122,1111122' 
DISL,ioos:station:DISL:MHPA:1,2015-02-03T14:00:00Z,30.6671,-87.9365,8.5,2.51,27.03,-9999.0,'1111122,1111122,1111122' 
DISL,ioos:station:DISL:MHPA:1,2015-02-03T14:30:00Z,30.6671,-87.9365,8.5,1.64,46.61,-9999.0,'1111122,1111122,1111122' 
DISL,ioos:station:DISL:MHPA:1,2015-02-03T15:00:00Z,30.6671,-87.9365,8.5,1.95,46.03,-9999.0,'1111122,1111122,1111122' 
DISL,ioos:station:DISL:MHPA:1,2015-02-03T15:30:00Z,30.6671,-87.9365,8.5,1.86,29.28,-9999.0,'1111122,1111122,1111122' 
DISL,ioos:station:DISL:MHPA:1,2015-02-03T16:00:00Z,30.6671,-87.9365,8.5,2.4,356.6,-9999.0,'1111122,1111122,1111122' 
DISL,ioos:station:DISL:MHPA:1,2015-02-03T16:30:00Z,30.6671,-87.9365,8.5,2.24,355.0,-9999.0,'1111122,1111122,1111122' 
DISL,ioos:station:DISL:MHPA:1,2015-02-03T17:00:00Z,30.6671,-87.9365,8.5,2.02,19.17,-9999.0,'1111122,1111122,1111122' 
DISL,ioos:station:DISL:MHPA:1,2015-02-03T17:30:00Z,30.6671,-87.9365,8.5,2.38,360.0,-9999.0,'1111122,1111122,1111122' 
DISL,ioos:station:DISL:MHPA:1,2015-02-03T18:00:00Z,30.6671,-87.9365,8.5,2.13,358.4,-9999.0,'1111122,1111122,1111122' 
DISL,ioos:station:DISL:MHPA:1,2015-02-03T18:30:00Z,30.6671,-87.9365,8.5,2.2,14.7,-9999.0,'1111122,1111122,1111122' 
DISL,ioos:station:DISL:MHPA:1,2015-02-03T19:00:00Z,30.6671,-87.9365,8.5,1.65,345.6,-9999.0,'1111122,1111122,1111122' 
DISL,ioos:station:DISL:MHPA:1,2015-02-03T19:30:00Z,30.6671,-87.9365,8.5,2.26,11.71,-9999.0,'1111122,1111122,1111122' 
DISL,ioos:station:DISL:MHPA:1,2015-02-03T20:00:00Z,30.6671,-87.9365,8.5,2.23,319.0,-9999.0,'1111122,1111122,1111122' 
DISL,ioos:station:DISL:MHPA:1,2015-02-03T20:30:00Z,30.6671,-87.9365,8.5,1.32,10.88,-9999.0,'1111122,1111122,1111122' 
DISL,ioos:station:DISL:MHPA:1,2015-02-03T21:00:00Z,30.6671,-87.9365,8.5,2.6,318.7,-9999.0,'1111122,1111122,1111122' 
DISL,ioos:station:DISL:MHPA:1,2015-02-03T21:30:00Z,30.6671,-87.9365,8.5,2.41,348.5,-9999.0,'1111122,1111122,1111122' 
DISL,ioos:station:DISL:MHPA:1,2015-02-03T22:00:00Z,30.6671,-87.9365,8.5,2.79,339.2,-9999.0,'1111122,1111122,1111122' 
DISL,ioos:station:DISL:MHPA:1,2015-02-03T22:30:00Z,30.6671,-87.9365,8.5,2.41,344.8,-9999.0,'1111122,1111122,1111122' 
DISL,ioos:station:DISL:MHPA:1,2015-02-03T23:00:00Z,30.6671,-87.9365,8.5,1.59,355.5,-9999.0,'1111122,1111122,1111122' 
DISL,ioos:station:DISL:MHPA:1,2015-02-03T23:30:00Z,30.6671,-87.9365,8.5,2.11,356.0,-9999.0,'1111122,1111122,1111122' 
DISL,ioos:station:DISL:MHPA:1,2015-02-04T00:00:00Z,30.6671,-87.9365,8.5,1.52,9.86,-9999.0,'1111122,1111122,1111122' 
DISL,ioos:station:DISL:MHPA:1,2015-02-04T00:30:00Z,30.6671,-87.9365,8.5,0.9,7.387,-9999.0,'1111122,1111122,1111122' 
DISL,ioos:station:DISL:MHPA:1,2015-02-04T01:00:00Z,30.6671,-87.9365,8.5,1.0,352.9,-9999.0,'1111122,1111122,1111122' 
DISL,ioos:station:DISL:MHPA:1,2015-02-04T01:30:00Z,30.6671,-87.9365,8.5,0.31,14.27,-9999.0,'1111122,1111122,1111122' 
DISL,ioos:station:DISL:MHPA:1,2015-02-04T02:00:00Z,30.6671,-87.9365,8.5,0.54,2.53,-9999.0,'1111122,1111122,1111122' 
DISL,ioos:station:DISL:MHPA:1,2015-02-04T02:30:00Z,30.6671,-87.9365,8.5,0.57,12.39,-9999.0,'1111122,1111122,1111122' 
DISL,ioos:station:DISL:MHPA:1,2015-02-04T03:00:00Z,30.6671,-87.9365,8.5,0.84,12.91,-9999.0,'1111122,1111122,1111122' 
DISL,ioos:station:DISL:MHPA:1,2015-02-04T03:30:00Z,30.6671,-87.9365,8.5,0.62,0.797,-9999.0,'1111122,1111122,1111122' 
DISL,ioos:station:DISL:MHPA:1,2015-02-04T04:00:00Z,30.6671,-87.9365,8.5,0.5,12.69,-9999.0,'1111122,1111122,1111122' 
DISL,ioos:station:DISL:MHPA:1,2015-02-04T04:30:00Z,30.6671,-87.9365,8.5,1.6,26.12,-9999.0,'1111122,1111122,1111122' 
DISL,ioos:station:DISL:MHPA:1,2015-02-04T05:00:00Z,30.6671,-87.9365,8.5,1.52,19.32,-9999.0,'1111122,1111122,1111122' 
DISL,ioos:station:DISL:MHPA:1,2015-02-04T05:30:00Z,30.6671,-87.9365,8.5,0.8,60.51,-9999.0,'1111122,1111122,1111122' 
DISL,ioos:station:DISL:MHPA:1,2015-02-04T06:00:00Z,30.6671,-87.9365,8.5,0.11,34.18,-9999.0,'1111122,1111122,1111122' 
DISL,ioos:station:DISL:MHPA:1,2015-02-04T06:30:00Z,30.6671,-87.9365,8.5,0.83,111.1,-9999.0,'1111122,1111122,1111122' 
DISL,ioos:station:DISL:MHPA:1,2015-02-04T07:00:00Z,30.6671,-87.9365,8.5,1.47,93.1,-9999.0,'1111122,1111122,1111122' 
DISL,ioos:station:DISL:MHPA:1,2015-02-04T07:30:00Z,30.6671,-87.9365,8.5,0.28,57.37,-9999.0,'1111122,1111122,1111122' 
DISL,ioos:station:DISL:MHPA:1,2015-02-04T08:00:00Z,30.6671,-87.9365,8.5,0.46,28.15,-9999.0,'1111122,1111122,1111122' 
DISL,ioos:station:DISL:MHPA:1,2015-02-04T08:30:00Z,30.6671,-87.9365,8.5,1.29,26.15,-9999.0,'1111122,1111122,1111122' 
DISL,ioos:station:DISL:MHPA:1,2015-02-04T09:00:00Z,30.6671,-87.9365,8.5,1.45,339.9,-9999.0,'1111122,1111122,1111122' 
DISL,ioos:station:DISL:MHPA:1,2015-02-04T09:30:00Z,30.6671,-87.9365,8.5,1.63,338.5,-9999.0,'1111122,1111122,1111122' 
DISL,ioos:station:DISL:MHPA:1,2015-02-04T10:00:00Z,30.6671,-87.9365,8.5,1.46,23.14,-9999.0,'1111122,1111122,1111122' 
DISL,ioos:station:DISL:MHPA:1,2015-02-04T10:30:00Z,30.6671,-87.9365,8.5,1.39,355.8,-9999.0,'1111122,1111122,1111122' 
DISL,ioos:station:DISL:MHPA:1,2015-02-04T11:00:00Z,30.6671,-87.9365,8.5,0.82,47.67,-9999.0,'1111122,1111122,1111122' 
DISL,ioos:station:DISL:MHPA:1,2015-02-04T11:30:00Z,30.6671,-87.9365,8.5,0.27,330.7,-9999.0,'1111122,1111122,1111122' 
DISL,ioos:station:DISL:MHPA:1,2015-02-04T12:00:00Z,30.6671,-87.9365,8.5,0.59,9.47,-9999.0,'1111122,1111122,1111122' 
DISL,ioos:station:DISL:MHPA:1,2015-02-04T12:30:00Z,30.6671,-87.9365,8.5,1.0,65.11,-9999.0,'1111122,1111122,1111122' 
DISL,ioos:station:DISL:MHPA:1,2015-02-04T13:00:00Z,30.6671,-87.9365,8.5,0.53,14.79,-9999.0,'1111122,1111122,1111122' 
DISL,ioos:station:DISL:MHPA:1,2015-02-04T13:30:00Z,30.6671,-87.9365,8.5,1.38,73.08,-9999.0,'1111122,1111122,1111122' 
DISL,ioos:station:DISL:MHPA:1,2015-02-04T14:00:00Z,30.6671,-87.9365,8.5,0.78,352.6,-9999.0,'1111122,1111122,1111122' 
DISL,ioos:station:DISL:MHPA:1,2015-02-04T14:30:00Z,30.6671,-87.9365,8.5,1.21,36.99,-9999.0,'1111122,1111122,1111122' 
DISL,ioos:station:DISL:MHPA:1,2015-02-04T15:00:00Z,30.6671,-87.9365,8.5,1.5,8.06,-9999.0,'1111122,1111122,1111122' 
DISL,ioos:station:DISL:MHPA:1,2015-02-04T15:30:00Z,30.6671,-87.9365,8.5,1.58,28.68,-9999.0,'1111122,1111122,1111122' 
DISL,ioos:station:DISL:MHPA:1,2015-02-04T16:00:00Z,30.6671,-87.9365,8.5,1.09,38.75,-9999.0,'1111122,1111122,1111122' 
DISL,ioos:station:DISL:MHPA:1,2015-02-04T16:30:00Z,30.6671,-87.9365,8.5,1.69,80.7,-9999.0,'1111122,1111122,1111122' 
DISL,ioos:station:DISL:MHPA:1,2015-02-04T17:00:00Z,30.6671,-87.9365,8.5,1.5,52.67,-9999.0,'1111122,1111122,1111122' 
DISL,ioos:station:DISL:MHPA:1,2015-02-04T17:30:00Z,30.6671,-87.9365,8.5,1.36,356.9,-9999.0,'1111122,1111122,1111122' 
DISL,ioos:station:DISL:MHPA:1,2015-02-04T18:00:00Z,30.6671,-87.9365,8.5,2.92,344.3,-9999.0,'1111122,1111122,1111122' 
DISL,ioos:station:DISL:MHPA:1,2015-02-04T18:30:00Z,30.6671,-87.9365,8.5,1.77,353.7,-9999.0,'1111122,1111122,1111122' 
DISL,ioos:station:DISL:MHPA:1,2015-02-04T19:00:00Z,30.6671,-87.9365,8.5,2.02,6.94,-9999.0,'1111122,1111122,1111122' 
DISL,ioos:station:DISL:MHPA:1,2015-02-04T19:30:00Z,30.6671,-87.9365,8.5,2.04,22.81,-9999.0,'1111122,1111122,1111122' 
DISL,ioos:station:DISL:MHPA:1,2015-02-04T20:00:00Z,30.6671,-87.9365,8.5,1.11,18.72,-9999.0,'1111122,1111122,1111122' 
DISL,ioos:station:DISL:MHPA:1,2015-02-04T20:30:00Z,30.6671,-87.9365,8.5,1.21,38.77,-9999.0,'1111122,1111122,1111122' 
DISL,ioos:station:DISL:MHPA:1,2015-02-04T21:00:00Z,30.6671,-87.9365,8.5,1.0,2.888,-9999.0,'1111122,1111122,1111122' 
DISL,ioos:station:DISL:MHPA:1,2015-02-04T21:30:00Z,30.6671,-87.9365,8.5,0.76,41.01,-9999.0,'1111122,1111122,1111122' 
DISL,ioos:station:DISL:MHPA:1,2015-02-04T22:00:00Z,30.6671,-87.9365,8.5,2.15,331.7,-9999.0,'1111122,1111122,1111122' 
DISL,ioos:station:DISL:MHPA:1,2015-02-04T22:30:00Z,30.6671,-87.9365,8.5,2.75,359.0,-9999.0,'1111122,1111122,1111122' 
DISL,ioos:station:DISL:MHPA:1,2015-02-04T23:00:00Z,30.6671,-87.9365,8.5,3.9,18.87,-9999.0,'1111122,1111122,1111122' 
DISL,ioos:station:DISL:MHPA:1,2015-02-04T23:30:00Z,30.6671,-87.9365,8.5,3.14,26.27,-9999.0,'1111122,1111122,1111122' 
DISL,ioos:station:DISL:MHPA:1,2015-02-05T00:00:00Z,30.6671,-87.9365,8.5,3.49,25.99,-9999.0,'1111122,1111122,1111122' 
DISL,ioos:station:DISL:MHPA:1,2015-02-05T00:30:00Z,30.6671,-87.9365,8.5,3.45,11.01,-9999.0,'1111122,1111122,1111122' 
DISL,ioos:station:DISL:MHPA:1,2015-02-05T01:00:00Z,30.6671,-87.9365,8.5,1.75,19.28,-9999.0,'1111122,1111122,1111122' 
DISL,ioos:station:DISL:MHPA:1,2015-02-05T01:30:00Z,30.6671,-87.9365,8.5,1.91,59.07,-9999.0,'1111122,1111122,1111122' 
DISL,ioos:station:DISL:MHPA:1,2015-02-05T02:00:00Z,30.6671,-87.9365,8.5,2.63,3.296,-9999.0,'1111122,1111122,1111122' 
DISL,ioos:station:DISL:MHPA:1,2015-02-05T02:30:00Z,30.6671,-87.9365,8.5,2.55,2.343,-9999.0,'1111122,1111122,1111122' 
DISL,ioos:station:DISL:MHPA:1,2015-02-05T03:00:00Z,30.6671,-87.9365,8.5,2.78,345.3,-9999.0,'1111122,1111122,1111122' 
DISL,ioos:station:DISL:MHPA:1,2015-02-05T03:30:00Z,30.6671,-87.9365,8.5,3.23,327.7,-9999.0,'1111122,1111122,1111122' 
DISL,ioos:station:DISL:MHPA:1,2015-02-05T04:00:00Z,30.6671,-87.9365,8.5,2.73,339.4,-9999.0,'1111122,1111122,1111122' 
DISL,ioos:station:DISL:MHPA:1,2015-02-05T04:30:00Z,30.6671,-87.9365,8.5,3.51,335.1,-9999.0,'1111122,1111122,1111122' 